Location: Cabrera Baja
(40.4089°N, 4.3354°W)
Time: 03:26:29
(UTC+00:00)

Cosmos 1666 - Pass Details

Date: 14 July 2020
Orbit: 496 x 521 km, 82.5° (Epoch: 03 August)

Event Time Altitude Azimuth Distance (km) Brightness Sun altitude
Exits shadow 02:48:04 54° 249° (WSW) 618 2.7 -19.4°
Maximum altitude 02:48:28 59° 279° (W) 593 2.7 -19.4°
Drops below altitude 10° 02:52:11 10° 360° (N) 1,722 6.1 -19.0°
Sets 02:54:20 0° 4° (N) 2,607 7.2 -18.7°
